Location: Amberg
(48.0613°N, 10.6820°E)
Time: 07:10:37
(UTC+00:00)

SPOT 1/Viking Rocket - Pass Details

Date: 18 November 2025
Orbit: 773 x 788 km, 98.2° (Epoch: 06 December)

Event Time Altitude Azimuth Distance (km) Brightness Sun altitude
Rises 16:39:02 0° 141° (SE) 3,259 6.5 -10.5°
Reaches altitude 10° 16:41:27 10° 133° (SE) 2,338 5.7 -10.9°
Maximum altitude 16:46:12 39° 66° (ENE) 1,174 4.0 -11.7°
Drops below altitude 10° 16:51:00 10° 360° (N) 2,360 5.9 -12.4°
Sets 16:53:27 0° 353° (N) 3,295 6.7 -12.8°
